Simultaneous Nadir Overpasses (SNOs) Predictions

Prediction of SNOs near US between AQUA and NPP Satellite Orbit:

Table of predicted SNOs near US for the next 10.0 days since TLE Epoch: 11/9/2019
Index Date (AQUA) Time (AQUA) AQUA Lat,Lon Date (NPP) Time (NPP) NPP Lat,Lon Distance(km) Time Diff (sec)
1 11/09/2019 07:18:37 49.93, -75.99 11/09/2019 07:20:21 50.36, -78.21 165.76 104
2 11/09/2019 08:57:29 49.93,-100.71 11/09/2019 09:01:48 50.47,-103.54 210.21 259
3 11/11/2019 18:16:46 49.98, -80.19 11/11/2019 18:10:36 49.69, -81.74 115.77 370
4 11/11/2019 19:55:39 49.98,-104.91 11/11/2019 19:52:04 49.58,-107.07 161.01 215
5 11/11/2019 21:30:49 36.68,-125.00 11/11/2019 21:29:43 36.20,-127.57 236.43 66
6 11/14/2019 09:23:36 22.77,-113.61 11/14/2019 09:16:01 22.88,-114.06 47.91 455
7 11/17/2019 06:30:10 46.39, -65.04 11/17/2019 06:30:34 46.80, -67.05 160.13 24
8 11/17/2019 08:08:04 49.89, -88.37 11/17/2019 08:11:01 50.42, -90.87 188.05 177
9 11/17/2019 09:46:57 49.90,-113.09 11/17/2019 09:52:29 50.53,-116.20 232.43 332




NCC Satellite Simultaneous Nadir Overpasses (SNOs) Prediction Service
